Content
SEND FEEDBACK

Daily
Averages
Monthly
Summary
United States of America

VINTON, LOUISIANA


Home > North America > United States > Louisiana
Elevation: 20 feet     Latitude: 30 12N     Longitude: 093 35W

WEATHER
 
SELECT A DAY
Number of Records: 194,987;   Date Range: 11/22/06 - 10/23/14
 
SHARE

PRINT THIS DATA

[ ← Previous Day ]
WEATHER ALMANAC - NOVEMBER 16, 2013
[ Next Day → ]
[ °C ]   °F
Weather ElementAverageHighLow
Temperature71.3 °F77.7 °F (3:15 pm)63.7 °F (12:35 am)
Dewpoint69.5 °F73.2 °F (10:15 am)63.7 °F (12:35 am)
Humidity94.2 %100 % (12:35 am)81 % (11:35 am)
Barometer29.94 in29.99 in (12:35 am)29.88 in (4:15 pm)
Wind Speed9.9 mph18.4 mph (3:15 pm)
Wind Gust24.2 mph (1:35 pm)
Weather ElementAverage
Visibility6.2 mi
Wind DirectionESE (124.2 °)

Weather ElementTotal
Precipitation---
Cooling Degree Days5.7 (Base 65)
Growing Degree Days20.7 (Base 50)
Averaged from 71 records on November 16, 2013
WEATHER CONDITIONS BREAKOUT
WIND DIRECTION BREAKOUT
WEATHER BY HOUR - NOVEMBER 16, 2013
[ °C ]   °F
Local TimeTemperatureDewpointHumidityBarometerVisibilityWind DirectionWind SpeedGust SpeedPrecipitationEventsConditions
12:35 AM63.7 °F63.7 °F100 %29.99 in0.2 miEast (90°)4.6 mphFogFog
12:55 AM64.4 °F64.4 °F100 %29.98 in0.2 miESE (110°)4.6 mphFogFog
1:15 AM64.8 °F64.8 °F100 %29.98 in0.2 miESE (110°)3.5 mphFogFog
1:35 AM64.8 °F64.8 °F100 %29.98 in0.2 miEast (100°)5.8 mphFogFog
1:55 AM64.8 °F64.8 °F100 %29.98 in0.2 miEast (100°)4.6 mphFogFog
2:15 AM64.8 °F64.8 °F100 %29.98 in0.2 miEast (100°)5.8 mphFogFog
2:35 AM65.3 °F65.3 °F100 %29.97 in0.5 miEast (100°)4.6 mphFogFog
2:55 AM65.3 °F65.3 °F100 %29.96 in0.5 miEast (100°)6.9 mphFogFog
3:15 AM65.3 °F65.3 °F100 %29.96 in0.2 miEast (90°)4.6 mphFogFog
3:35 AM65.5 °F65.5 °F100 %29.95 in0.5 miEast (100°)4.6 mphFogFog
3:55 AM65.7 °F65.7 °F100 %29.96 in0.8 miEast (100°)3.5 mphOvercast
4:15 AM65.7 °F65.7 °F100 %29.95 in0.5 miEast (90°)3.5 mphFogFog
4:35 AM65.8 °F65.8 °F100 %29.96 in0.2 miEast (90°)4.6 mphFogFog
4:55 AM66.0 °F66.0 °F100 %29.95 in0.5 miEast (90°)4.6 mphFogFog
5:15 AM66.2 °F66.2 °F100 %29.96 in0.5 miEast (100°)4.6 mphFogFog
5:35 AM66.2 °F66.2 °F100 %29.96 in0.5 miEast (90°)4.6 mphFogFog
5:55 AM66.2 °F66.2 °F100 %29.96 in0.5 miEast (100°)4.6 mphFogFog
6:15 AM66.2 °F66.2 °F100 %29.96 in0.5 miEast (90°)6.9 mphFogFog
6:35 AM66.2 °F66.2 °F100 %29.97 in0.5 miEast (90°)4.6 mphFogFog
6:55 AM66.4 °F66.4 °F100 %29.96 in0.5 miEast (100°)8.1 mphFogFog
7:15 AM66.4 °F66.4 °F100 %29.97 in0.5 miEast (100°)5.8 mphFogFog
7:35 AM67.1 °F67.1 °F100 %29.97 in0.2 miESE (110°)5.8 mphFogFog
7:55 AM67.3 °F67.3 °F100 %29.98 in0.2 miESE (120°)5.8 mphFogFog
8:15 AM68.2 °F68.2 °F100 %29.98 in0.5 miESE (110°)5.8 mphFogFog
8:35 AM69.6 °F69.6 °F100 %29.98 in2.0 miESE (120°)4.6 mphOvercast
8:55 AM70.9 °F70.7 °F99 %29.99 in10.0 miESE (120°)3.5 mphOvercast
9:15 AM71.2 °F71.1 °F99 %29.99 in10.0 miSE (140°)10.4 mphOvercast
9:35 AM72.3 °F72.0 °F99 %29.99 in10.0 miSSE (150°)10.4 mphOvercast
9:55 AM72.9 °F72.7 °F99 %29.99 in10.0 miSE (140°)11.5 mphMostly Cloudy
10:15 AM73.6 °F73.2 °F99 %29.99 in10.0 miSE (130°)9.2 mph18.4 mphOvercast
10:35 AM75.2 °F72.0 °F90 %29.98 in10.0 miSE (130°)11.5 mph17.3 mphOvercast
10:55 AM76.1 °F72.3 °F88 %29.98 in10.0 miSE (140°)12.7 mph17.3 mphOvercast
11:15 AM77.5 °F72.0 °F83 %29.97 in10.0 miSE (130°)15.0 mphOvercast
11:35 AM77.5 °F71.2 °F81 %29.97 in10.0 miSSE (150°)15.0 mph20.7 mphOvercast
11:55 AM76.8 °F71.2 °F83 %29.96 in10.0 miSE (140°)13.8 mphOvercast
12:15 PM76.5 °F71.1 °F83 %29.96 in10.0 miSSE (160°)13.8 mph17.3 mphOvercast
12:35 PM76.3 °F71.4 °F85 %29.95 in10.0 miSSE (150°)11.5 mph16.1 mphOvercast
12:55 PM76.5 °F71.6 °F85 %29.94 in10.0 miSSE (150°)12.7 mph21.9 mphOvercast
1:15 PM76.5 °F71.6 °F85 %29.93 in10.0 miSE (140°)17.3 mph20.7 mphOvercast
1:35 PM76.5 °F71.6 °F85 %29.92 in10.0 miSSE (150°)16.1 mph24.2 mphOvercast
1:55 PM77.4 °F71.6 °F82 %29.91 in10.0 miSSE (150°)15.0 mphOvercast
2:15 PM76.5 °F71.4 °F84 %29.91 in10.0 miSSE (150°)15.0 mph20.7 mphOvercast
2:35 PM76.5 °F71.6 °F85 %29.90 in10.0 miSE (140°)12.7 mph18.4 mphOvercast
2:55 PM76.3 °F71.6 °F85 %29.89 in10.0 miSE (140°)12.7 mph19.6 mphOvercast
3:15 PM77.7 °F72.0 °F82 %29.89 in10.0 miSE (140°)18.4 mphMostly Cloudy
3:35 PM77.2 °F71.8 °F83 %29.89 in10.0 miSE (140°)15.0 mph20.7 mphScattered Clouds
3:55 PM76.3 °F71.8 °F86 %29.89 in10.0 miSE (140°)16.1 mph20.7 mphMostly Cloudy
4:15 PM75.6 °F71.6 °F87 %29.88 in10.0 miSE (140°)15.0 mph23.0 mphOvercast
4:35 PM74.8 °F71.4 °F89 %29.88 in10.0 miSE (140°)15.0 mphOvercast
4:55 PM74.1 °F71.1 °F90 %29.89 in10.0 miSE (140°)13.8 mphMostly Cloudy
5:15 PM73.6 °F71.1 °F92 %29.89 in10.0 miSE (140°)11.5 mphMostly Cloudy
5:35 PM73.4 °F71.1 °F92 %29.90 in10.0 miSE (140°)8.1 mphOvercast
5:55 PM73.0 °F70.9 °F93 %29.89 in10.0 miSE (130°)9.2 mphOvercast
6:15 PM72.7 °F70.7 °F93 %29.88 in10.0 miSE (130°)10.4 mphOvercast
6:35 PM72.7 °F70.9 °F94 %29.89 in10.0 miSE (140°)9.2 mphOvercast
6:55 PM72.7 °F70.9 °F94 %29.90 in10.0 miSE (130°)9.2 mphOvercast
7:15 PM72.0 °F70.5 °F95 %29.90 in10.0 miSE (140°)8.1 mphMostly Cloudy
7:35 PM71.6 °F70.0 °F95 %29.90 in10.0 miSE (130°)6.9 mphScattered Clouds
7:55 PM71.8 °F70.3 °F95 %29.90 in10.0 miSE (140°)11.5 mph16.1 mphMostly Cloudy
8:15 PM72.7 °F71.1 °F95 %29.91 in10.0 miSE (130°)11.5 mph16.1 mphOvercast
8:35 PM72.7 °F71.2 °F95 %29.91 in7.0 miSE (130°)12.7 mph17.3 mphMostly Cloudy
8:55 PM72.7 °F71.2 °F95 %29.92 in7.0 miSE (130°)12.7 mph18.4 mphMostly Cloudy
9:15 PM72.7 °F71.6 °F96 %29.92 in7.0 miSE (130°)12.7 mph17.3 mphMostly Cloudy
9:35 PM72.7 °F71.6 °F96 %29.91 in7.0 miSE (130°)11.5 mph18.4 mphMostly Cloudy
9:55 PM72.7 °F71.6 °F96 %29.92 in7.0 miSE (130°)11.5 mph17.3 mphMostly Cloudy
10:15 PM72.9 °F71.6 °F96 %29.92 in7.0 miSE (130°)11.5 mphOvercast
10:35 PM73.2 °F72.0 °F96 %29.92 in7.0 miSE (130°)15.0 mph20.7 mphMostly Cloudy
10:55 PM73.0 °F72.0 °F96 %29.91 in7.0 miSE (130°)13.8 mph20.7 mphRainLight Rain
11:15 PM73.0 °F72.1 °F97 %29.90 in7.0 miSE (130°)16.1 mph20.7 mphLight Drizzle
11:35 PM72.9 °F72.0 °F97 %29.90 in7.0 miSE (130°)13.8 mph18.4 mphScattered Clouds
11:55 PM72.9 °F72.0 °F97 %29.90 in7.0 miSE (130°)12.7 mph17.3 mphMostly Cloudy
Hourly data recorded from KUXL, located miles away from Vinton, Louisiana







STORIES FROM OUR PARTNERS